This is the latest recevied weather packets stored in our database for station/object OE-11399. If no packets are shown the sender has not sent any weather packets the latest 10 day(s).
| Time | Temp. | Humidity | Pressure | Rain* | Wind** | Luminosity | Snow |
|---|---|---|---|---|---|---|---|
| 1788073900 | 14.44° C | 82% | 854.5 hPa | 0 mm | - | 389 W/m² | - |
| 1788073526 | 13.33° C | 84% | 854.4 hPa | 0 mm | - | 367 W/m² | - |
| 1788072926 | 13.33° C | 86% | 854.3 hPa | 0 mm | - | 286 W/m² | - |
| 1788072100 | 12.22° C | 89% | 854.2 hPa | 0 mm | - | 117 W/m² | - |
| 1788071727 | 12.22° C | 90% | 854.1 hPa | 0 mm | - | 147 W/m² | - |
| 1788071127 | 12.22° C | 89% | 854.1 hPa | 0 mm | - | 73 W/m² | - |
| 1788070300 | 11.67° C | 90% | 853.9 hPa | 0 mm | - | 95 W/m² | - |
| 1788069926 | 11.67° C | 90% | 853.9 hPa | 0 mm | - | 81 W/m² | - |
| 1788069327 | 11.67° C | 90% | 853.9 hPa | 0 mm | - | 59 W/m² | - |
| 1788068500 | 11.67° C | 92% | 853.8 hPa | 0 mm | - | 59 W/m² | - |
| 1788068127 | 11.11° C | 91% | 853.8 hPa | 0 mm | - | 37 W/m² | - |
| 1788067527 | 11.11° C | 91% | 853.7 hPa | 0 mm | - | 22 W/m² | - |
| 1788066700 | 11.11° C | 92% | 853.7 hPa | 0 mm | - | 22 W/m² | - |
| 1788066326 | 10.56° C | 92% | 853.6 hPa | 0 mm | - | 15 W/m² | - |
| 1788065726 | 10.56° C | 93% | 853.6 hPa | 0 mm | - | 7 W/m² | - |
| 1788064899 | 10.56° C | 92% | 853.6 hPa | 0 mm | - | 0 W/m² | - |
| 1788064526 | 10.56° C | 92% | 853.6 hPa | 0 mm | - | 0 W/m² | - |
| 1788063926 | 10.56° C | 93% | 853.5 hPa | 0 mm | - | 0 W/m² | - |
| 1788063099 | 10.56° C | 92% | 853.6 hPa | 0 mm | - | 0 W/m² | - |
| 1788062726 | 10.56° C | 92% | 853.6 hPa | 0 mm | - | 0 W/m² | - |
| 1788062126 | 10.56° C | 92% | 853.6 hPa | 0 mm | - | 0 W/m² | - |
| 1788061527 | 11.11° C | 91% | 853.7 hPa | 0 mm | - | 0 W/m² | - |
| 1788060926 | 11.11° C | 92% | 853.7 hPa | 0 mm | - | 0 W/m² | - |
| 1788060326 | 11.11° C | 92% | 853.6 hPa | 0 mm | - | 0 W/m² | - |
| 1788059500 | 11.11° C | 92% | 853.7 hPa | 0 mm | - | 0 W/m² | - |
* Rain latest hour (hover to see other rain measurements)
** Current wind speed in m/s (hover to see current wind gust speed)